| time (UTC) | temp C | wind direction | speed KPH | gust KPH | rain 1hr cm | rain 24hr cm | rain mn cm | humidity % | barometer mb |
| 20260831172528 | 20 | 59 | 3.2 | 8.0 | 0.00 | 0.00 | 0.00 | 62 | 998.7 |
| 20260831172032 | 20 | 70 | 1.6 | 4.8 | 0.00 | 0.00 | 0.00 | 62 | 998.8 |
| 20260831171507 | 19 | 51 | 1.6 | 6.4 | 0.00 | 0.00 | 0.00 | 64 | 998.9 |
| 20260831171016 | 19 | 48 | 1.6 | 6.4 | 0.00 | 0.00 | 0.00 | 66 | 998.9 |
| 20260831170522 | 18 | 321 | 1.6 | 8.0 | 0.00 | 0.00 | 0.00 | 65 | 998.8 |
| 20260831170050 | 18 | 34 | 4.8 | 8.0 | 0.00 | 0.00 | 0.00 | 67 | 999.0 |
| 20260831165556 | 18 | 338 | 0.0 | 4.8 | 0.00 | 0.00 | 0.00 | 65 | 999.1 |
| 20260831165001 | 18 | 25 | 0.0 | 4.8 | 0.00 | 0.00 | 0.00 | 65 | 999.2 |
| 20260831164546 | 18 | 22 | 0.0 | 4.8 | 0.00 | 0.00 | 0.00 | 67 | 999.1 |
| 20260831164048 | 18 | 298 | 1.6 | 4.8 | 0.00 | 0.00 | 0.00 | 67 | 999.2 |
| 20260831163550 | 18 | 336 | 1.6 | 8.0 | 0.00 | 0.00 | 0.00 | 68 | 999.2 |
| 20260831163024 | 17 | 30 | 1.6 | 8.0 | 0.00 | 0.00 | 0.00 | 68 | 999.3 |
| 20260831162533 | 17 | 40 | 1.6 | 4.8 | 0.00 | 0.00 | 0.00 | 69 | 999.3 |
| 20260831162037 | 17 | 40 | 0.0 | 6.4 | 0.00 | 0.00 | 0.00 | 70 | 999.3 |
| 20260831161602 | 17 | 40 | 3.2 | 6.4 | 0.00 | 0.00 | 0.00 | 70 | 999.4 |
| 20260831161006 | 17 | 49 | 3.2 | 6.4 | 0.00 | 0.00 | 0.00 | 70 | 999.4 |
| 20260831160511 | 17 | 17 | 1.6 | 4.8 | 0.00 | 0.00 | 0.00 | 72 | 999.4 |
| 20260831160043 | 16 | 46 | 1.6 | 6.4 | 0.00 | 0.00 | 0.00 | 72 | 999.4 |
| 20260831155548 | 16 | 51 | 3.2 | 8.0 | 0.00 | 0.00 | 0.00 | 72 | 999.4 |
| 20260831155057 | 16 | 47 | 3.2 | 8.0 | 0.00 | 0.00 | 0.00 | 72 | 999.5 |
| 20260831154524 | 16 | 74 | 4.8 | 8.0 | 0.00 | 0.00 | 0.00 | 73 | 999.5 |
| 20260831154032 | 16 | 51 | 3.2 | 6.4 | 0.00 | 0.00 | 0.00 | 74 | 999.5 |
| 20260831153536 | 15 | 25 | 3.2 | 6.4 | 0.00 | 0.00 | 0.00 | 75 | 999.6 |
| 20260831153050 | 15 | 53 | 3.2 | 6.4 | 0.00 | 0.00 | 0.00 | 77 | 999.6 |
| 20260831152546 | 15 | 34 | 1.6 | 4.8 | 0.00 | 0.00 | 0.00 | 79 | 999.7 |
| 20260831152053 | 14 | 28 | 0.0 | 6.4 | 0.00 | 0.00 | 0.00 | 80 | 999.7 |
| 20260831151502 | 13 | 20 | 3.2 | 6.4 | 0.00 | 0.00 | 0.00 | 81 | 999.8 |
| 20260831151003 | 13 | 49 | 1.6 | 4.8 | 0.00 | 0.00 | 0.00 | 83 | 999.7 |
| 20260831150508 | 13 | 323 | 1.6 | 4.8 | 0.00 | 0.00 | 0.00 | 84 | 999.7 |
| 20260831150044 | 13 | 43 | 1.6 | 4.8 | 0.00 | 0.00 | 0.00 | 84 | 999.7 |
| 20260831145551 | 12 | 212 | 0.0 | 4.8 | 0.00 | 0.00 | 0.00 | 85 | 999.8 |
| 20260831145051 | 12 | 213 | 0.0 | 0.0 | 0.00 | 0.00 | 0.00 | 85 | 999.7 |
| 20260831144530 | 12 | 213 | 0.0 | 0.0 | 0.00 | 0.00 | 0.00 | 85 | 999.7 |
| 20260831144035 | 12 | 213 | 0.0 | 0.0 | 0.00 | 0.00 | 0.00 | 84 | 999.8 |
| 20260831143536 | 12 | 213 | 0.0 | 0.0 | 0.00 | 0.00 | 0.00 | 84 | 999.7 |
| 20260831143056 | 12 | 213 | 0.0 | 0.0 | 0.00 | 0.00 | 0.00 | 84 | 999.7 |
| 20260831142558 | 12 | 213 | 0.0 | 1.6 | 0.00 | 0.00 | 0.00 | 84 | 999.7 |
| 20260831142103 | 12 | 213 | 0.0 | 3.2 | 0.00 | 0.00 | 0.00 | 83 | 999.6 |
| 20260831141537 | 12 | 213 | 1.6 | 3.2 | 0.00 | 0.00 | 0.00 | 83 | 999.6 |
| 20260831141043 | 12 | 213 | 1.6 | 3.2 | 0.00 | 0.00 | 0.00 | 83 | 999.7 |
| 20260831140552 | 12 | 213 | 1.6 | 3.2 | 0.00 | 0.00 | 0.00 | 83 | 999.8 |
| 20260831140019 | 12 | 213 | 1.6 | 3.2 | 0.00 | 0.00 | 0.00 | 83 | 999.7 |
| 20260831135526 | 12 | 213 | 1.6 | 3.2 | 0.00 | 0.00 | 0.00 | 83 | 999.7 |
| 20260831135032 | 12 | 213 | 1.6 | 3.2 | 0.00 | 0.00 | 0.00 | 83 | 999.7 |
| 20260831134558 | 12 | 213 | 3.2 | 3.2 | 0.00 | 0.00 | 0.00 | 83 | 999.6 |
| 20260831134005 | 12 | 213 | 1.6 | 3.2 | 0.00 | 0.00 | 0.00 | 83 | 999.6 |
| 20260831133511 | 12 | 213 | 1.6 | 3.2 | 0.00 | 0.00 | 0.00 | 83 | 999.8 |
| 20260831133048 | 12 | 213 | 0.0 | 3.2 | 0.00 | 0.00 | 0.00 | 82 | 999.8 |
| 20260831132554 | 12 | 213 | 1.6 | 3.2 | 0.00 | 0.00 | 0.00 | 82 | 999.7 |
| 20260831132100 | 12 | 213 | 1.6 | 4.8 | 0.00 | 0.00 | 0.00 | 82 | 999.9 |
| 20260831131538 | 12 | 213 | 1.6 | 4.8 | 0.00 | 0.00 | 0.00 | 82 | 999.9 |
| 20260831131039 | 12 | 213 | 1.6 | 3.2 | 0.00 | 0.00 | 0.00 | 82 | 999.9 |
| 20260831130550 | 12 | 213 | 1.6 | 3.2 | 0.00 | 0.00 | 0.00 | 82 | 999.8 |
| 20260831130024 | 12 | 213 | 1.6 | 3.2 | 0.00 | 0.00 | 0.00 | 82 | 999.9 |
| 20260831125511 | 12 | 213 | 1.6 | 4.8 | 0.00 | 0.00 | 0.00 | 82 | 999.9 |
| 20260831125021 | 12 | 213 | 3.2 | 4.8 | 0.00 | 0.00 | 0.00 | 82 | 1000.0 |
| 20260831124607 | 12 | 213 | 1.6 | 3.2 | 0.00 | 0.00 | 0.00 | 82 | 999.9 |
| 20260831124003 | 12 | 213 | 1.6 | 3.2 | 0.00 | 0.00 | 0.00 | 82 | 1000.0 |
| 20260831123505 | 12 | 213 | 1.6 | 3.2 | 0.00 | 0.00 | 0.00 | 82 | 1000.0 |
| 20260831123041 | 12 | 213 | 1.6 | 3.2 | 0.00 | 0.00 | 0.00 | 82 | 1000.0 |
| 20260831122550 | 12 | 213 | 1.6 | 4.8 | 0.00 | 0.00 | 0.00 | 82 | 1000.0 |
| 20260831122049 | 12 | 213 | 0.0 | 6.4 | 0.00 | 0.00 | 0.00 | 82 | 1000.0 |
| 20260831121518 | 12 | 296 | 0.0 | 0.0 | 0.00 | 0.00 | 0.00 | 82 | 1000.1 |
| 20260831121032 | 12 | 268 | 0.0 | 0.0 | 0.00 | 0.00 | 0.00 | 82 | 1000.1 |
| 20260831120540 | 12 | 268 | 0.0 | 0.0 | 0.00 | 0.00 | 0.00 | 82 | 1000.1 |
| 20260831120058 | 12 | 268 | 0.0 | 0.0 | 0.00 | 0.00 | 0.00 | 82 | 1000.2 |
| 20260831115502 | 12 | 268 | 0.0 | 0.0 | 0.00 | 0.00 | 0.00 | 82 | 1000.2 |
| 20260831115007 | 12 | 268 | 0.0 | 0.0 | 0.00 | 0.00 | 0.00 | 82 | 1000.3 |
| 20260831114518 | 12 | 268 | 0.0 | 0.0 | 0.00 | 0.00 | 0.00 | 81 | 1000.4 |
| 20260831114032 | 13 | 268 | 0.0 | 0.0 | 0.00 | 0.00 | 0.00 | 82 | 1000.3 |
| 20260831113537 | 13 | 268 | 0.0 | 0.0 | 0.00 | 0.00 | 0.00 | 82 | 1000.4 |
| 20260831113009 | 13 | 268 | 0.0 | 0.0 | 0.00 | 0.00 | 0.00 | 82 | 1000.4 |
| 20260831112523 | 13 | 268 | 0.0 | 0.0 | 0.00 | 0.00 | 0.00 | 82 | 1000.4 |
| 20260831112029 | 13 | 268 | 0.0 | 1.6 | 0.00 | 0.00 | 0.00 | 82 | 1000.4 |
| 20260831111616 | 13 | 268 | 0.0 | 3.2 | 0.00 | 0.00 | 0.00 | 82 | 1000.5 |
| 20260831111101 | 13 | 268 | 0.0 | 3.2 | 0.00 | 0.00 | 0.00 | 82 | 1000.4 |
| 20260831110505 | 13 | 268 | 1.6 | 4.8 | 0.00 | 0.00 | 0.00 | 81 | 1000.5 |
| 20260831110044 | 13 | 268 | 1.6 | 4.8 | 0.00 | 0.00 | 0.00 | 81 | 1000.6 |
| 20260831105549 | 13 | 268 | 1.6 | 4.8 | 0.00 | 0.00 | 0.00 | 81 | 1000.5 |
| 20260831105100 | 13 | 268 | 1.6 | 3.2 | 0.00 | 0.00 | 0.00 | 81 | 1000.6 |
| 20260831104547 | 13 | 268 | 0.0 | 4.8 | 0.00 | 0.00 | 0.00 | 81 | 1000.6 |
| 20260831104038 | 13 | 268 | 1.6 | 4.8 | 0.00 | 0.00 | 0.00 | 81 | 1000.5 |
| 20260831103548 | 13 | 271 | 1.6 | 4.8 | 0.00 | 0.00 | 0.00 | 81 | 1000.5 |
| 20260831103012 | 13 | 271 | 1.6 | 4.8 | 0.00 | 0.00 | 0.00 | 81 | 1000.6 |
| 20260831102529 | 13 | 271 | 0.0 | 4.8 | 0.00 | 0.00 | 0.00 | 81 | 1000.6 |
| 20260831102027 | 13 | 270 | 1.6 | 4.8 | 0.00 | 0.00 | 0.00 | 81 | 1000.6 |
| 20260831101559 | 13 | 271 | 1.6 | 4.8 | 0.00 | 0.00 | 0.00 | 81 | 1000.7 |
| 20260831101004 | 13 | 256 | 0.0 | 0.0 | 0.00 | 0.00 | 0.00 | 81 | 1000.8 |
| 20260831100503 | 13 | 256 | 0.0 | 0.0 | 0.00 | 0.00 | 0.00 | 81 | 1000.9 |
| 20260831100043 | 13 | 256 | 0.0 | 0.0 | 0.00 | 0.00 | 0.00 | 81 | 1000.9 |
| 20260831095547 | 13 | 256 | 0.0 | 0.0 | 0.00 | 0.00 | 0.00 | 81 | 1001.0 |
| 20260831095059 | 13 | 256 | 0.0 | 0.0 | 0.00 | 0.00 | 0.00 | 81 | 1001.2 |
| 20260831094524 | 13 | 256 | 0.0 | 3.2 | 0.00 | 0.00 | 0.00 | 81 | 1001.2 |
| 20260831094031 | 13 | 256 | 1.6 | 4.8 | 0.00 | 0.00 | 0.00 | 81 | 1001.2 |
| 20260831093537 | 13 | 256 | 1.6 | 4.8 | 0.00 | 0.00 | 0.00 | 80 | 1001.3 |
| 20260831093057 | 13 | 254 | 1.6 | 3.2 | 0.00 | 0.00 | 0.00 | 81 | 1001.2 |
| 20260831092501 | 13 | 254 | 1.6 | 3.2 | 0.00 | 0.00 | 0.00 | 80 | 1001.3 |
| 20260831092012 | 13 | 254 | 0.0 | 3.2 | 0.00 | 0.00 | 0.00 | 80 | 1001.3 |
| 20260831091542 | 13 | 254 | 0.0 | 4.8 | 0.00 | 0.00 | 0.00 | 80 | 1001.3 |
| 20260831091045 | 13 | 254 | 1.6 | 4.8 | 0.00 | 0.00 | 0.00 | 80 | 1001.4 |
| 20260831090553 | 13 | 269 | 1.6 | 4.8 | 0.00 | 0.00 | 0.00 | 80 | 1001.4 |
| 20260831090027 | 13 | 269 | 1.6 | 4.8 | 0.00 | 0.00 | 0.00 | 80 | 1001.5 |
| 20260831085537 | 13 | 273 | 1.6 | 4.8 | 0.00 | 0.00 | 0.00 | 80 | 1001.5 |
| 20260831085043 | 13 | 273 | 1.6 | 4.8 | 0.00 | 0.00 | 0.00 | 80 | 1001.5 |
| 20260831084521 | 13 | 270 | 1.6 | 4.8 | 0.00 | 0.00 | 0.00 | 80 | 1001.6 |
| 20260831084026 | 13 | 269 | 1.6 | 4.8 | 0.00 | 0.00 | 0.00 | 80 | 1001.7 |
| 20260831083533 | 14 | 270 | 1.6 | 4.8 | 0.00 | 0.00 | 0.00 | 80 | 1001.7 |
| 20260831083106 | 14 | 270 | 1.6 | 4.8 | 0.00 | 0.00 | 0.00 | 80 | 1001.7 |
| 20260831082514 | 14 | 243 | 1.6 | 4.8 | 0.00 | 0.00 | 0.00 | 79 | 1001.7 |
| 20260831082019 | 14 | 242 | 1.6 | 4.8 | 0.00 | 0.00 | 0.00 | 79 | 1001.8 |
| 20260831081549 | 14 | 242 | 1.6 | 4.8 | 0.00 | 0.00 | 0.00 | 79 | 1001.8 |
| 20260831081055 | 14 | 244 | 1.6 | 4.8 | 0.00 | 0.00 | 0.00 | 79 | 1002.0 |
| 20260831080557 | 14 | 244 | 1.6 | 4.8 | 0.00 | 0.00 | 0.00 | 78 | 1002.0 |
| 20260831080012 | 14 | 242 | 1.6 | 4.8 | 0.00 | 0.00 | 0.00 | 78 | 1002.2 |
| 20260831075525 | 14 | 242 | 1.6 | 4.8 | 0.00 | 0.00 | 0.00 | 78 | 1002.2 |
| 20260831075025 | 15 | 242 | 1.6 | 4.8 | 0.00 | 0.00 | 0.00 | 78 | 1002.2 |
| 20260831074559 | 15 | 231 | 1.6 | 4.8 | 0.00 | 0.00 | 0.00 | 77 | 1002.3 |
| 20260831074005 | 15 | 231 | 1.6 | 4.8 | 0.00 | 0.00 | 0.00 | 77 | 1002.2 |
| 20260831073513 | 15 | 231 | 1.6 | 4.8 | 0.00 | 0.00 | 0.00 | 77 | 1002.1 |
| 20260831073032 | 15 | 246 | 0.0 | 3.2 | 0.00 | 0.00 | 0.00 | 77 | 1002.2 |
| 20260831072535 | 15 | 341 | 0.0 | 3.2 | 0.00 | 0.00 | 0.00 | 76 | 1002.2 |
| 20260831072042 | 15 | 342 | 0.0 | 1.6 | 0.00 | 0.00 | 0.00 | 76 | 1002.3 |
| 20260831071553 | 15 | 259 | 0.0 | 0.0 | 0.00 | 0.00 | 0.00 | 75 | 1002.4 |
| 20260831071101 | 15 | 259 | 0.0 | 0.0 | 0.00 | 0.00 | 0.00 | 75 | 1002.5 |
| 20260831070507 | 15 | 259 | 0.0 | 0.0 | 0.00 | 0.00 | 0.00 | 75 | 1002.5 |
| 20260831070049 | 15 | 259 | 0.0 | 4.8 | 0.00 | 0.00 | 0.00 | 75 | 1002.5 |
| 20260831065538 | 15 | 259 | 1.6 | 4.8 | 0.00 | 0.00 | 0.00 | 75 | 1002.6 |
| 20260831065044 | 15 | 297 | 1.6 | 4.8 | 0.00 | 0.00 | 0.00 | 75 | 1002.6 |
| 20260831064558 | 15 | 304 | 0.0 | 3.2 | 0.00 | 0.00 | 0.00 | 75 | 1002.7 |
| 20260831064059 | 15 | 307 | 0.0 | 4.8 | 0.00 | 0.00 | 0.00 | 75 | 1002.8 |
| 20260831063517 | 15 | 273 | 0.0 | 4.8 | 0.00 | 0.00 | 0.00 | 74 | 1002.7 |
| 20260831063041 | 15 | 280 | 1.6 | 9.7 | 0.00 | 0.00 | 0.00 | 75 | 1002.8 |
| 20260831062542 | 15 | 296 | 3.2 | 8.0 | 0.00 | 0.00 | 0.00 | 74 | 1002.9 |
| 20260831062043 | 16 | 318 | 3.2 | 6.4 | 0.00 | 0.00 | 0.00 | 74 | 1002.9 |
| 20260831061519 | 16 | 297 | 0.0 | 9.7 | 0.00 | 0.00 | 0.00 | 74 | 1003.0 |
| 20260831061026 | 16 | 297 | 3.2 | 9.7 | 0.00 | 0.00 | 0.00 | 74 | 1003.0 |
| 20260831060530 | 16 | 274 | 1.6 | 6.4 | 0.00 | 0.00 | 0.00 | 74 | 1003.0 |
| 20260831060044 | 16 | 54 | 1.6 | 12.9 | 0.00 | 0.00 | 0.00 | 73 | 1003.0 |
| 20260831055549 | 16 | 350 | 3.2 | 12.9 | 0.00 | 0.00 | 0.00 | 73 | 1003.1 |
| 20260831055049 | 16 | 254 | 0.0 | 9.7 | 0.00 | 0.00 | 0.00 | 73 | 1003.1 |
| 20260831054522 | 16 | 269 | 4.8 | 14.5 | 0.00 | 0.00 | 0.00 | 73 | 1003.2 |
| 20260831054026 | 16 | 277 | 0.0 | 14.5 | 0.00 | 0.00 | 0.00 | 73 | 1003.2 |
| 20260831053533 | 16 | 252 | 1.6 | 11.3 | 0.00 | 0.00 | 0.00 | 73 | 1003.3 |
| 20260831053102 | 16 | 5 | 0.0 | 11.3 | 0.00 | 0.00 | 0.00 | 72 | 1003.3 |
| 20260831052502 | 16 | 355 | 3.2 | 8.0 | 0.00 | 0.00 | 0.00 | 72 | 1003.4 |
| 20260831052017 | 16 | 281 | 1.6 | 8.0 | 0.00 | 0.00 | 0.00 | 72 | 1003.5 |
| 20260831051544 | 16 | 320 | 1.6 | 8.0 | 0.00 | 0.00 | 0.00 | 72 | 1003.6 |
| 20260831051053 | 16 | 311 | 1.6 | 8.0 | 0.00 | 0.00 | 0.00 | 71 | 1003.6 |
| 20260831050501 | 16 | 325 | 1.6 | 8.0 | 0.00 | 0.00 | 0.00 | 71 | 1003.6 |
| 20260831050055 | 16 | 305 | 1.6 | 8.0 | 0.00 | 0.00 | 0.00 | 71 | 1003.6 |
| 20260831045541 | 16 | 247 | 1.6 | 4.8 | 0.00 | 0.00 | 0.00 | 70 | 1003.6 |
| 20260831045049 | 16 | 246 | 1.6 | 8.0 | 0.00 | 0.00 | 0.00 | 70 | 1003.7 |
| 20260831044503 | 16 | 307 | 3.2 | 8.0 | 0.00 | 0.00 | 0.00 | 70 | 1003.7 |
| 20260831044010 | 16 | 301 | 3.2 | 6.4 | 0.00 | 0.00 | 0.00 | 69 | 1003.7 |
| 20260831043523 | 17 | 14 | 0.0 | 3.2 | 0.00 | 0.00 | 0.00 | 69 | 1003.7 |
| 20260831043052 | 17 | 284 | 0.0 | 3.2 | 0.00 | 0.00 | 0.00 | 69 | 1003.8 |
| 20260831042554 | 17 | 281 | 0.0 | 3.2 | 0.00 | 0.00 | 0.00 | 68 | 1003.8 |
| 20260831042043 | 17 | 281 | 1.6 | 6.4 | 0.00 | 0.00 | 0.00 | 67 | 1003.7 |
| 20260831041614 | 17 | 281 | 0.0 | 6.4 | 0.00 | 0.00 | 0.00 | 67 | 1003.7 |
| 20260831041010 | 17 | 10 | 0.0 | 4.8 | 0.00 | 0.00 | 0.00 | 66 | 1003.8 |
| 20260831040515 | 17 | 10 | 1.6 | 8.0 | 0.00 | 0.00 | 0.00 | 66 | 1003.7 |
| 20260831040051 | 17 | 344 | 1.6 | 8.0 | 0.00 | 0.00 | 0.00 | 66 | 1003.8 |
| 20260831035558 | 17 | 355 | 1.6 | 8.0 | 0.00 | 0.00 | 0.00 | 66 | 1003.7 |
| 20260831035005 | 18 | 338 | 1.6 | 8.0 | 0.00 | 0.00 | 0.00 | 65 | 1003.8 |
| 20260831034541 | 18 | 51 | 3.2 | 8.0 | 0.00 | 0.00 | 0.00 | 65 | 1003.8 |
| 20260831034047 | 18 | 19 | 0.0 | 9.7 | 0.00 | 0.00 | 0.00 | 65 | 1003.8 |
| 20260831033553 | 18 | 5 | 3.2 | 9.7 | 0.00 | 0.00 | 0.00 | 64 | 1003.7 |
| 20260831033031 | 18 | 12 | 3.2 | 11.3 | 0.00 | 0.00 | 0.00 | 64 | 1003.7 |
| 20260831032542 | 18 | 55 | 3.2 | 11.3 | 0.00 | 0.00 | 0.00 | 63 | 1003.7 |
| 20260831032047 | 18 | 122 | 1.6 | 9.7 | 0.00 | 0.00 | 0.00 | 63 | 1003.8 |
| 20260831031526 | 18 | 5 | 4.8 | 16.1 | 0.00 | 0.00 | 0.00 | 63 | 1003.7 |
| 20260831031030 | 18 | 313 | 6.4 | 16.1 | 0.00 | 0.00 | 0.00 | 62 | 1003.8 |
| 20260831030540 | 18 | 34 | 6.4 | 14.5 | 0.00 | 0.00 | 0.00 | 61 | 1003.7 |
| 20260831030003 | 18 | 227 | 4.8 | 12.9 | 0.00 | 0.00 | 0.00 | 61 | 1003.7 |
| 20260831025517 | 19 | 18 | 3.2 | 12.9 | 0.00 | 0.00 | 0.00 | 60 | 1003.7 |
| 20260831025023 | 19 | 21 | 3.2 | 9.7 | 0.00 | 0.00 | 0.00 | 59 | 1003.7 |
| 20260831024611 | 19 | 360 | 1.6 | 17.7 | 0.00 | 0.00 | 0.00 | 59 | 1003.8 |
| 20260831024100 | 19 | 42 | 3.2 | 17.7 | 0.00 | 0.00 | 0.00 | 59 | 1003.8 |
| 20260831023507 | 20 | 342 | 3.2 | 12.9 | 0.00 | 0.00 | 0.00 | 58 | 1003.8 |
| 20260831023031 | 20 | 25 | 4.8 | 12.9 | 0.00 | 0.00 | 0.00 | 58 | 1003.8 |
| 20260831022537 | 20 | 28 | 4.8 | 12.9 | 0.00 | 0.00 | 0.00 | 57 | 1003.8 |
| 20260831022045 | 20 | 61 | 4.8 | 20.9 | 0.00 | 0.00 | 0.00 | 58 | 1003.8 |
| 20260831021519 | 20 | 5 | 6.4 | 20.9 | 0.00 | 0.00 | 0.00 | 58 | 1003.8 |
| 20260831021029 | 20 | 346 | 8.0 | 17.7 | 0.00 | 0.00 | 0.00 | 58 | 1003.8 |
| 20260831020539 | 20 | 9 | 6.4 | 17.7 | 0.00 | 0.00 | 0.00 | 57 | 1003.8 |
| 20260831020003 | 20 | 329 | 8.0 | 19.3 | 0.00 | 0.00 | 0.00 | 58 | 1003.7 |
| 20260831015517 | 20 | 360 | 8.0 | 19.3 | 0.00 | 0.00 | 0.00 | 58 | 1003.8 |
| 20260831015022 | 20 | 328 | 9.7 | 19.3 | 0.00 | 0.00 | 0.00 | 58 | 1003.7 |
| 20260831014603 | 20 | 16 | 4.8 | 16.1 | 0.00 | 0.00 | 0.00 | 57 | 1003.7 |
| 20260831014002 | 20 | 20 | 4.8 | 16.1 | 0.00 | 0.00 | 0.00 | 58 | 1003.8 |
| 20260831013511 | 21 | 55 | 8.0 | 16.1 | 0.00 | 0.00 | 0.00 | 58 | 1003.8 |
| 20260831013047 | 21 | 351 | 8.0 | 16.1 | 0.00 | 0.00 | 0.00 | 56 | 1003.8 |
| 20260831012555 | 21 | 13 | 6.4 | 16.1 | 0.00 | 0.00 | 0.00 | 56 | 1003.8 |
| 20260831012103 | 21 | 360 | 6.4 | 16.1 | 0.00 | 0.00 | 0.00 | 55 | 1003.9 |
| 20260831011538 | 21 | 351 | 4.8 | 14.5 | 0.00 | 0.00 | 0.00 | 55 | 1003.9 |
| 20260831011043 | 21 | 77 | 6.4 | 16.1 | 0.00 | 0.00 | 0.00 | 55 | 1004.1 |
| 20260831010551 | 21 | 45 | 8.0 | 16.1 | 0.00 | 0.00 | 0.00 | 55 | 1004.0 |
| 20260831010035 | 21 | 5 | 4.8 | 14.5 | 0.00 | 0.00 | 0.00 | 55 | 1004.1 |
| 20260831005531 | 21 | 34 | 4.8 | 19.3 | 0.00 | 0.00 | 0.00 | 54 | 1004.2 |
| 20260831005041 | 22 | 26 | 6.4 | 19.3 | 0.00 | 0.00 | 0.00 | 54 | 1004.2 |
| 20260831004509 | 22 | 51 | 4.8 | 14.5 | 0.00 | 0.00 | 0.00 | 54 | 1004.2 |
| 20260831004023 | 22 | 45 | 3.2 | 16.1 | 0.00 | 0.00 | 0.00 | 53 | 1004.2 |
| 20260831003531 | 22 | 350 | 8.0 | 16.1 | 0.00 | 0.00 | 0.00 | 53 | 1004.2 |
| 20260831003106 | 22 | 360 | 6.4 | 14.5 | 0.00 | 0.00 | 0.00 | 53 | 1004.3 |
| 20260831002504 | 22 | 111 | 4.8 | 14.5 | 0.00 | 0.00 | 0.00 | 53 | 1004.4 |
| 20260831002018 | 22 | 39 | 1.6 | 16.1 | 0.00 | 0.00 | 0.00 | 54 | 1004.4 |
| 20260831001540 | 22 | 13 | 6.4 | 16.1 | 0.00 | 0.00 | 0.00 | 52 | 1004.4 |
| 20260831001041 | 22 | 78 | 3.2 | 19.3 | 0.00 | 0.00 | 0.00 | 52 | 1004.4 |
| 20260831000548 | 22 | 28 | 8.0 | 19.3 | 0.00 | 0.00 | 0.00 | 53 | 1004.6 |
| 20260831000025 | 22 | 159 | 3.2 | 16.1 | 0.00 | 0.00 | 0.00 | 52 | 1004.5 |
| 20260830235537 | 22 | 355 | 8.0 | 16.1 | 0.00 | 0.00 | 0.00 | 52 | 1004.6 |
| 20260830235053 | 22 | 86 | 6.4 | 16.1 | 0.00 | 0.00 | 0.00 | 52 | 1004.5 |
| 20260830234506 | 22 | 309 | 4.8 | 11.3 | 0.00 | 0.00 | 0.00 | 54 | 1004.6 |
| 20260830234018 | 22 | 32 | 1.6 | 14.5 | 0.00 | 0.00 | 0.00 | 52 | 1004.6 |
| 20260830233527 | 22 | 55 | 6.4 | 14.5 | 0.00 | 0.00 | 0.00 | 53 | 1004.8 |
| 20260830233058 | 22 | 59 | 6.4 | 12.9 | 0.00 | 0.00 | 0.00 | 53 | 1004.8 |
| 20260830232505 | 22 | 341 | 3.2 | 16.1 | 0.00 | 0.00 | 0.00 | 53 | 1004.9 |
| 20260830232023 | 22 | 87 | 4.8 | 16.1 | 0.00 | 0.00 | 0.00 | 51 | 1004.9 |
| 20260830231538 | 22 | 47 | 1.6 | 11.3 | 0.00 | 0.00 | 0.00 | 52 | 1005.0 |
| 20260830231048 | 22 | 25 | 3.2 | 16.1 | 0.00 | 0.00 | 0.00 | 51 | 1005.0 |
| 20260830230556 | 22 | 63 | 3.2 | 14.5 | 0.00 | 0.00 | 0.00 | 53 | 1005.1 |
| 20260830230037 | 22 | 347 | 6.4 | 17.7 | 0.00 | 0.00 | 0.00 | 51 | 1005.1 |
| 20260830225534 | 22 | 298 | 4.8 | 17.7 | 0.00 | 0.00 | 0.00 | 50 | 1005.3 |
| 20260830225046 | 22 | 29 | 1.6 | 12.9 | 0.00 | 0.00 | 0.00 | 50 | 1005.3 |
| 20260830224529 | 22 | 85 | 3.2 | 8.0 | 0.00 | 0.00 | 0.00 | 51 | 1005.6 |
| 20260830224025 | 22 | 274 | 3.2 | 8.0 | 0.00 | 0.00 | 0.00 | 52 | 1005.6 |
| 20260830223531 | 22 | 269 | 1.6 | 17.7 | 0.00 | 0.00 | 0.00 | 51 | 1005.7 |
| 20260830223059 | 22 | 261 | 8.0 | 17.7 | 0.00 | 0.00 | 0.00 | 52 | 1005.9 |
| 20260830222504 | 22 | 99 | 4.8 | 11.3 | 0.00 | 0.00 | 0.00 | 50 | 1005.9 |
| 20260830222016 | 22 | 71 | 3.2 | 11.3 | 0.00 | 0.00 | 0.00 | 50 | 1006.0 |
| 20260830221534 | 22 | 44 | 3.2 | 12.9 | 0.00 | 0.00 | 0.00 | 52 | 1006.0 |
| 20260830221040 | 22 | 280 | 4.8 | 14.5 | 0.00 | 0.00 | 0.00 | 52 | 1006.1 |
| 20260830220548 | 22 | 5 | 3.2 | 9.7 | 0.00 | 0.00 | 0.00 | 50 | 1006.2 |
| 20260830220025 | 22 | 273 | 1.6 | 12.9 | 0.00 | 0.00 | 0.00 | 52 | 1006.2 |
| 20260830215527 | 22 | 313 | 6.4 | 12.9 | 0.00 | 0.00 | 0.00 | 51 | 1006.3 |
| 20260830215038 | 22 | 68 | 4.8 | 11.3 | 0.00 | 0.00 | 0.00 | 52 | 1006.4 |
| 20260830214505 | 22 | 138 | 3.2 | 11.3 | 0.00 | 0.00 | 0.00 | 52 | 1006.3 |
| 20260830214023 | 22 | 70 | 4.8 | 9.7 | 0.00 | 0.00 | 0.00 | 50 | 1006.4 |
| 20260830213518 | 22 | 218 | 3.2 | 12.9 | 0.00 | 0.00 | 0.00 | 49 | 1006.5 |
| 20260830213102 | 22 | 74 | 6.4 | 12.9 | 0.00 | 0.00 | 0.00 | 49 | 1006.7 |
| 20260830212600 | 22 | 70 | 3.2 | 12.9 | 0.00 | 0.00 | 0.00 | 52 | 1006.7 |
| 20260830212107 | 22 | 355 | 4.8 | 11.3 | 0.00 | 0.00 | 0.00 | 51 | 1006.8 |
| 20260830211538 | 22 | 62 | 1.6 | 11.3 | 0.00 | 0.00 | 0.00 | 51 | 1006.9 |
| 20260830211047 | 21 | 279 | 3.2 | 6.4 | 0.00 | 0.00 | 0.00 | 52 | 1006.9 |
| 20260830210551 | 21 | 97 | 1.6 | 11.3 | 0.00 | 0.00 | 0.00 | 50 | 1006.9 |
| 20260830210024 | 21 | 89 | 4.8 | 11.3 | 0.00 | 0.00 | 0.00 | 50 | 1007.1 |
| 20260830205532 | 22 | 51 | 4.8 | 11.3 | 0.00 | 0.00 | 0.00 | 52 | 1007.0 |
| 20260830205040 | 21 | 19 | 6.4 | 12.9 | 0.00 | 0.00 | 0.00 | 53 | 1007.1 |
| 20260830204506 | 21 | 355 | 3.2 | 9.7 | 0.00 | 0.00 | 0.00 | 53 | 1007.1 |
| 20260830204010 | 21 | 109 | 4.8 | 9.7 | 0.00 | 0.00 | 0.00 | 54 | 1007.1 |
| 20260830203516 | 20 | 311 | 1.6 | 16.1 | 0.00 | 0.00 | 0.00 | 54 | 1007.3 |
| 20260830203050 | 21 | 9 | 4.8 | 16.1 | 0.00 | 0.00 | 0.00 | 52 | 1007.3 |
| 20260830202558 | 21 | 42 | 1.6 | 12.9 | 0.00 | 0.00 | 0.00 | 54 | 1007.3 |
| 20260830202004 | 21 | 317 | 4.8 | 14.5 | 0.00 | 0.00 | 0.00 | 52 | 1007.3 |
| 20260830201605 | 21 | 11 | 8.0 | 14.5 | 0.00 | 0.00 | 0.00 | 54 | 1007.5 |
| 20260830201048 | 21 | 26 | 4.8 | 14.5 | 0.00 | 0.00 | 0.00 | 53 | 1007.5 |
| 20260830200552 | 21 | 61 | 6.4 | 14.5 | 0.00 | 0.00 | 0.00 | 53 | 1007.6 |
| 20260830200028 | 20 | 186 | 1.6 | 12.9 | 0.00 | 0.00 | 0.00 | 54 | 1007.6 |
| 20260830195537 | 20 | 5 | 4.8 | 12.9 | 0.00 | 0.00 | 0.00 | 54 | 1007.7 |
| 20260830195045 | 20 | 5 | 4.8 | 12.9 | 0.00 | 0.00 | 0.00 | 55 | 1007.6 |
| 20260830194515 | 20 | 251 | 4.8 | 12.9 | 0.00 | 0.00 | 0.00 | 57 | 1007.6 |
| 20260830194025 | 20 | 42 | 1.6 | 12.9 | 0.00 | 0.00 | 0.00 | 56 | 1007.7 |
| 20260830193531 | 20 | 37 | 4.8 | 14.5 | 0.00 | 0.00 | 0.00 | 56 | 1007.7 |
| 20260830193002 | 20 | 26 | 3.2 | 8.0 | 0.00 | 0.00 | 0.00 | 56 | 1007.9 |
| 20260830192508 | 19 | 19 | 1.6 | 12.9 | 0.00 | 0.00 | 0.00 | 56 | 1007.9 |
| 20260830192014 | 20 | 333 | 1.6 | 12.9 | 0.00 | 0.00 | 0.00 | 57 | 1008.0 |
| 20260830191551 | 20 | 287 | 6.4 | 12.9 | 0.00 | 0.00 | 0.00 | 58 | 1008.1 |
| 20260830191058 | 19 | 63 | 3.2 | 9.7 | 0.00 | 0.00 | 0.00 | 56 | 1008.1 |
| 20260830190502 | 20 | 55 | 1.6 | 11.3 | 0.00 | 0.00 | 0.00 | 57 | 1008.1 |
| 20260830190039 | 20 | 28 | 4.8 | 12.9 | 0.00 | 0.00 | 0.00 | 55 | 1008.3 |
| 20260830185544 | 19 | 46 | 1.6 | 6.4 | 0.00 | 0.00 | 0.00 | 59 | 1008.3 |
| 20260830185053 | 18 | 124 | 3.2 | 9.7 | 0.00 | 0.00 | 0.00 | 60 | 1008.3 |
| 20260830184532 | 18 | 97 | 3.2 | 9.7 | 0.00 | 0.00 | 0.00 | 60 | 1008.4 |
| 20260830184039 | 18 | 50 | 3.2 | 12.9 | 0.00 | 0.00 | 0.00 | 58 | 1008.5 |
| 20260830183545 | 19 | 55 | 8.0 | 12.9 | 0.00 | 0.00 | 0.00 | 58 | 1008.5 |
| 20260830183010 | 18 | 313 | 4.8 | 9.7 | 0.00 | 0.00 | 0.00 | 59 | 1008.4 |
| 20260830182524 | 18 | 39 | 3.2 | 14.5 | 0.00 | 0.00 | 0.00 | 60 | 1008.4 |
| 20260830182032 | 18 | 53 | 4.8 | 14.5 | 0.00 | 0.00 | 0.00 | 59 | 1008.5 |
| 20260830181510 | 18 | 32 | 4.8 | 16.1 | 0.00 | 0.00 | 0.00 | 60 | 1008.4 |
| 20260830181023 | 18 | 355 | 4.8 | 16.1 | 0.00 | 0.00 | 0.00 | 59 | 1008.5 |
| 20260830180531 | 19 | 17 | 4.8 | 12.9 | 0.00 | 0.00 | 0.00 | 59 | 1008.5 |
| 20260830180100 | 19 | 100 | 3.2 | 9.7 | 0.00 | 0.00 | 0.00 | 58 | 1008.4 |
| 20260830175600 | 18 | 295 | 1.6 | 8.0 | 0.00 | 0.00 | 0.00 | 61 | 1008.4 |
| 20260830175108 | 17 | 51 | 0.0 | 16.1 | 0.00 | 0.00 | 0.00 | 62 | 1008.5 |
| 20260830174539 | 18 | 32 | 4.8 | 16.1 | 0.00 | 0.00 | 0.00 | 63 | 1008.4 |
| 20260830174045 | 18 | 46 | 3.2 | 9.7 | 0.00 | 0.00 | 0.00 | 62 | 1008.4 |
| 20260830173549 | 17 | 78 | 1.6 | 9.7 | 0.00 | 0.00 | 0.00 | 64 | 1008.4 |
| 20260830173025 | 17 | 76 | 3.2 | 9.7 | 0.00 | 0.00 | 0.00 | 66 | 1008.4 |